Погода в Жилине

Россия / Пермский край     57°28′14″N   56°47′17″E
темп.,
°C
ветер,
м/с
пор.,
м/с
влажн.,
%
обл.,
%
осадки,
мм/ч
давл.,
гПа
погр.,
м
18 сентября, сб
сб1823:00+5ссз3592100 1.1 1009470
02:00+1сз22936 0.0 101018
05:000сз349419 0.0 101068
08:00+2ссз4896100 0.0 1010347
11:00+3ссз5885100 0.0 1011819
14:00+6сз6868100 0.2 10111351
17:00+6сз7106897 0.6 10111273
20:00+3сз6117896 0.1 1012530
19 сентября, вс
вс1923:00+3сз71188100 0.1 1012938
02:00+2сз61194100 0.1 1013922
05:00+2сз71286100 0.3 1014893
08:00+2сз71184100 0.1 1015985
11:00+4сз71170100 0.2 10161407
14:00+5сз81056100 0.1 10181454
17:00+5сз71056100 0.1 10191465
20:00+4сз6962100 0.0 1020943
20 сентября, пн
пн2023:00+3сз5968100 0.0 1021714
02:00+1зсз488080 0.0 1023273
05:00+2зсз4875100 0.0 1024353
08:00+2сз4876100 0.0 1025428
11:00+4ссз447092 0.0 1026838
14:00+5с4466100 0.1 10281140
17:00+4с3466100 0.1 1029830
20:00+3с2473100 0.0 1030190
21 сентября, вт
вт2123:00+3ссв2377100 0.0 1030114
02:00+3св1276100 0.0 103139
05:00+3всв1171100 0.0 103010
08:00+4св116967 0.0 103051
11:00+7в225911 0.0 1029920
14:00+9в21535 0.0 10271050
17:00+9св01525 0.0 10261045
20:00+5св11704 0.0 102510
22 сентября, ср
ср2223:00+3с22805 0.0 102513
02:00+1ссв228743 0.0 102514
05:000ссв22898 0.0 102512
08:00+1св22880 0.0 102547
11:00+6всв22610 0.0 1024461
14:00+10всв33534 0.0 1023741
17:00+11в335349 0.0 1022877
20:00+6в227140 0.0 102214